Station RKXF1 - Upper Henderson Creek, Rookery Bay Reserve, FL Image indicating link to RSS feed of recent meteorological observations for station RKXF1


Conditions at RKXF1 as of
(7:45 pm EDT)
2345 GMT on 06/20/2024:
     

Click on the graph icon in the table below to see a time series plot of the last five days of that observation.

5-day plot - Wind Direction Wind Direction (WDIR):ESE ( 110 deg true )
5-day plot - Wind Speed Wind Speed (WSPD): 5.1 kts
5-day plot - Atmospheric Pressure Atmospheric Pressure (PRES):30.03 in
5-day plot - Air Temperature Air Temperature (ATMP): 85.6 °F
5-day plot - Dew Point Dew Point (DEWP): 71.4 °F
5-day plot - Heat Index Heat Index (HEAT): 91.4 °F
5-day plot -  Wind Speed, Wind Gust and Atmospheric Pressure Combined plot of Wind Speed, Gust, and Air Pressure
Previous observations
TIME
(EDT)
5-day plot - Wind Direction
WDIR
 
5-day plot - Wind Speed
WSPD
kts
5-day plot - Wind Gust
GST
kts
5-day plot - Wave Height
WVHT
ft
5-day plot - Dominant Wave Period
DPD
sec
5-day plot - Average Wave Period
APD
sec
5-day plot - Mean Wave Direction
MWD
 
5-day plot - Atmospheric Pressure
PRES
in
5-day plot - Pressure Tendency
PTDY
in
5-day plot - Air Temperature
ATMP
°F
5-day plot - Water Temperature
WTMP
°F
5-day plot - Dew Point
DEWP
°F
5-day plot - Salinity
SAL
psu
5-day plot - Visibility
VIS
nmi
5-day plot - Tide (above MLLW)
TIDE
ft
2024-06-20 07:30 pm E 5.1-----30.03- 85.8- 71.6---
2024-06-20 07:15 pm E 5.1-----30.03- 86.9- 71.8---
2024-06-20 07:00 pmESE 6.0-----30.03-0.03 88.7- 72.5---
2024-06-20 06:45 pmESE 7.0-----30.03- 87.6- 72.5---
2024-06-20 06:30 pmESE 7.0-----30.03- 85.8- 72.5---
2024-06-20 06:15 pmESE 8.0-----30.03- 84.7- 73.2---
2024-06-20 06:00 pmESE 9.9-----30.03-0.03 89.6- 74.3---
2024-06-20 05:45 pm SE 5.1-----30.03- 90.0- 74.7---
2024-06-20 05:30 pm SE 6.0-----30.03- 88.7- 74.5---
2024-06-20 05:15 pm SE 5.1-----30.03- 88.7- 73.4---
2024-06-20 05:00 pm SE 7.0-----30.03-0.03 88.5- 74.3---
2024-06-20 04:45 pmESE 8.0-----30.03- 87.6- 72.9---
2024-06-20 04:30 pmESE 9.9-----30.03- 91.4- 71.8---
2024-06-20 04:15 pm SE 8.9-----30.03- 92.1- 71.4---
2024-06-20 04:00 pmESE 8.0-----30.06-0.03 92.3- 71.6---
2024-06-20 03:45 pm SE 8.9-----30.06- 92.3- 71.6---
2024-06-20 03:30 pm SE 8.9-----30.06- 91.9- 71.2---
2024-06-20 03:15 pm SE 9.9-----30.06- 91.4- 71.2---
2024-06-20 03:00 pm SE 9.9-----30.06-0.03 91.4- 71.8---
2024-06-20 02:45 pm SE 8.0-----30.06- 91.6- 72.5---
2024-06-20 02:30 pmESE 8.9-----30.06- 90.3- 73.0---
2024-06-20 02:15 pmESE 8.9-----30.06- 90.3- 73.9---
2024-06-20 02:00 pmESE 8.9-----30.06-0.03 89.6- 74.8---
2024-06-20 01:45 pm SE 9.9-----30.06- 89.6- 74.3---
2024-06-20 01:30 pm SE 11.1-----30.09- 88.9- 73.6---
2024-06-20 01:15 pmESE 8.9-----30.09- 87.6- 75.6---
2024-06-20 01:00 pmESE 8.0-----30.09+0.03 88.3- 76.3---
2024-06-20 12:45 pmESE 8.9-----30.09- 86.5- 75.0---
2024-06-20 12:30 pmESE 9.9-----30.09- 85.5- 73.9---
2024-06-20 12:15 pmESE 8.9-----30.09- 84.6- 73.2---
2024-06-20 12:00 pmESE 11.1-----30.09+0.03 85.1- 73.2---
2024-06-20 11:45 am SE 11.1-----30.09- 88.5- 75.2---
2024-06-20 11:30 am SE 8.9-----30.09- 87.3- 74.5---
2024-06-20 11:15 am SE 9.9-----30.09- 87.4- 74.1---
2024-06-20 11:00 am SE 8.9-----30.09+0.06 86.2- 75.2---
2024-06-20 10:45 am SE 8.0-----30.09- 86.5- 75.0---
2024-06-20 10:30 am SE 8.0-----30.06- 86.2- 75.6---
2024-06-20 10:15 am SE 8.9-----30.06- 85.6- 75.4---
2024-06-20 10:00 amESE 8.0-----30.06+0.03 84.9- 75.6---
2024-06-20 09:45 am SE 8.0-----30.06- 84.6- 75.6---
2024-06-20 09:30 am SE 7.0-----30.06- 84.4- 75.7---
2024-06-20 09:15 amESE 8.0-----30.06- 83.8- 76.1---
2024-06-20 09:00 amESE 6.0-----30.06+0.03 82.8- 76.1---
2024-06-20 08:45 amESE 7.0-----30.06- 81.0- 75.4---
2024-06-20 08:30 amESE 5.1-----30.06- 79.7- 75.2---
2024-06-20 08:15 am E 5.1-----30.03- 78.8- 75.4---
2024-06-20 08:00 am E 5.1-----30.03+0.03 77.7- 75.0---
2024-06-20 07:45 am E 5.1-----30.03- 76.6- 74.5---
2024-06-20 07:30 am E 5.1-----30.03- 75.9- 74.1---
2024-06-20 07:15 am E 4.1-----30.03- 75.6- 74.1---
2024-06-20 07:00 am E 5.1-----30.03+0.03 75.4- 73.9---
2024-06-20 06:45 am E 5.1-----30.03- 75.2- 73.9---
2024-06-20 06:30 am E 4.1-----30.03- 75.2- 73.9---
2024-06-20 06:15 am E 4.1-----30.03- 75.0- 73.8---
2024-06-20 06:00 am E 4.1-----30.03+0.03 75.0- 73.8---
2024-06-20 05:45 am E 4.1-----30.03- 75.2- 73.8---
2024-06-20 05:30 am E 4.1-----30.00- 75.2- 73.8---
2024-06-20 05:15 am E 5.1-----30.00- 75.4- 73.9---
2024-06-20 05:00 am E 4.1-----30.00+0.00 75.4- 73.9---
2024-06-20 04:45 am E 4.1-----30.00- 75.4- 73.9---
2024-06-20 04:30 am E 4.1-----30.00- 75.6- 73.8---
2024-06-20 04:15 am E 4.1-----30.00- 75.7- 73.9---
2024-06-20 04:00 am E 4.1-----30.00-0.03 75.9- 73.8---
2024-06-20 03:45 am E 4.1-----30.00- 76.1- 73.6---
2024-06-20 03:30 am E 5.1-----30.00- 76.1- 73.6---
2024-06-20 03:15 am E 5.1-----30.00- 76.3- 73.8---
2024-06-20 03:00 am E 5.1-----30.00-0.03 76.3- 73.8---
2024-06-20 02:45 am E 5.1-----30.00- 76.5- 73.8---
2024-06-20 02:30 am E 5.1-----30.00- 76.6- 73.6---
2024-06-20 02:15 am E 5.1-----30.00- 77.0- 73.6---
2024-06-20 02:00 am E 5.1-----30.00-0.03 77.0- 73.6---
2024-06-20 01:45 am E 5.1-----30.03- 77.0- 73.6---
2024-06-20 01:30 am E 5.1-----30.03- 77.0- 73.9---
2024-06-20 01:15 am E 5.1-----30.03- 77.2- 74.1---
2024-06-20 01:00 am E 4.1-----30.03+0.00 77.4- 73.9---
2024-06-20 12:45 am E 5.1-----30.03- 77.5- 74.1---
2024-06-20 12:30 am E 5.1-----30.03- 77.7- 73.9---
2024-06-20 12:15 am E 5.1-----30.03- 77.9- 74.1---
2024-06-20 12:00 am E 5.1-----30.03+0.03 77.9- 73.8---
2024-06-19 11:45 pm E 5.1-----30.03- 78.1- 73.6---
2024-06-19 11:30 pm E 4.1-----30.03- 78.4- 73.8---
2024-06-19 11:15 pm E 4.1-----30.03- 78.8- 73.9---
2024-06-19 11:00 pmESE 4.1-----30.03+0.03 79.2- 74.1---
2024-06-19 10:45 pm SE 5.1-----30.03- 79.2- 73.8---
2024-06-19 10:30 pm SE 5.1-----30.03- 79.5- 73.8---
2024-06-19 10:15 pmESE 5.1-----30.03- 79.7- 73.2---
2024-06-19 10:00 pmESE 6.0-----30.03+0.06 80.2- 72.9---
2024-06-19 09:45 pmESE 6.0-----30.03- 80.6- 72.5---
2024-06-19 09:30 pmESE 6.0-----30.03- 81.1- 72.3---
2024-06-19 09:15 pmESE 8.0-----30.00- 81.9- 71.8---
2024-06-19 09:00 pm SE 8.0-----30.00+0.03 82.8- 72.7---
2024-06-19 08:45 pmESE 8.0-----30.00- 83.1- 72.7---
2024-06-19 08:30 pmESE 7.0-----30.00- 83.3- 72.3---
2024-06-19 08:15 pmESE 7.0-----30.00- 83.7- 71.8---
2024-06-19 08:00 pmESE 8.0-----30.00+0.00 84.2- 71.4---